Tracking 18871 objects as of 13-Dec-2017
HD Live streaming from Space Station
objects crossing your sky now

COSMOS 2251 DEB

Track COSMOS 2251 DEB now!
10-day predictions


NORAD ID: 35451
Int'l Code: 1993-036AKV
Perigee: 567.2 km
Apogee: 717.0 km
Inclination: 73.9 °
Period: 97.4 minutes
Semi major axis: 7013 km
RCS: 0.0039 m2 (small)
Launch date: June 16, 1993
Source: Commonwealth of Independent States (former USSR) (CIS)
Launch site: PLESETSK MISSILE AND SPACE COMPLEX (PKMTR)

Note: This is SATELLITE DEBRIS
aabbcc
Your satellite tracking list
Your tracking list is empty




NASA's NSSDC Master Catalog

Two Line Element Set (TLE):
1 35451U 93036AKV 17345.29899410  .00000626  00000-0  83319-4 0  9993
2 35451  73.9448 204.5960 0106829  65.4622 295.7643 14.78216747464830
Source of the keplerian elements: AFSPC